Marysville, CA

2:14 AM PDT on October 15, 2019 (GMT -0700)
Yuba County

Weather History for KMYV - September, 2019

Change the Weather History Date:

Monday, September 23, 2019

  Actual Average Record
Temperature  
Mean Temperature 72 °F -  
Max Temperature 90 °F 87 °F 100 °F (2002)
Min Temperature 55 °F 55 °F 47 °F (1972)
Cooling Degree Days 7    
Growing Degree Days 22 (Base 50)    
Moisture  
Dew Point 51 °F    
Average Humidity 49    
Maximum Humidity 90    
Minimum Humidity 26    
Precipitation  
Precipitation 0.00 in - - ()
Sea Level Pressure  
Sea Level Pressure 29.94 in    
Wind  
Wind Speed 9 mph ()    
Max Wind Speed 20 mph    
Max Gust Speed 26 mph    
Visibility 10.0 miles    
Events      
Averages and records for this station are not official NWS values.
T = Trace of Precipitation, MM = Missing Value Source: Averaged Metar Reports

Daily Weather History Graph

Daily Weather History Graph

Search for Another Location

Airport or City:

Astronomy

Sep. 23, 2019 Rise Set
Actual Time 6:54 AM PDT 7:01 PM PDT
Civil Twilight 6:28 AM PDT 7:28 PM PDT
Nautical Twilight 5:56 AM PDT 7:59 PM PDT
Astronomical Twilight 5:25 AM PDT 8:31 PM PDT
Moon 12:45 AM PDT (9/23) 3:57 PM PDT (9/23)
Length of Visible Light 13h 00m
Length of Day
12h 07m
Waning Crescent, 32% of the Moon is Illuminated
Sep 23
Waning Crescent
Sep 28
New
Oct 5
First Quarter
Oct 13
Full
Oct 21
Last Quarter

Hourly Weather History & Observations

Time (PDT) Temp. Dew Point Humidity Pressure Visibility Wind Dir Wind Speed Gust Speed Precip Events Conditions
12:53 AM 63.0 °F 54.0 °F 72% 29.88 in 10.0 mi SE 4.6 mph - N/A   Clear
1:53 AM 62.1 °F 53.1 °F 72% 29.88 in 10.0 mi SE 6.9 mph - N/A   Clear
2:53 AM 59.0 °F 53.1 °F 81% 29.88 in 10.0 mi North 3.5 mph - N/A   Clear
3:53 AM 60.1 °F 54.0 °F 80% 29.90 in 10.0 mi North 6.9 mph - N/A   Clear
4:53 AM 60.1 °F 53.1 °F 78% 29.91 in 10.0 mi North 3.5 mph - N/A   Clear
5:53 AM 55.9 °F 53.1 °F 90% 29.91 in 10.0 mi North 3.5 mph - N/A   Clear
6:53 AM 59.0 °F 53.1 °F 81% 29.94 in 10.0 mi NNW 8.1 mph - N/A   Clear
7:53 AM 62.1 °F 54.0 °F 75% 29.96 in 10.0 mi NNW 6.9 mph - N/A   Clear
8:53 AM 66.9 °F 52.0 °F 59% 29.98 in 10.0 mi NNW 10.4 mph - N/A   Clear
9:53 AM 73.0 °F 53.1 °F 49% 29.98 in 10.0 mi NNW 10.4 mph - N/A   Clear
10:53 AM 77.0 °F 52.0 °F 42% 29.98 in 10.0 mi NNW 16.1 mph - N/A   Clear
11:53 AM 82.0 °F 51.1 °F 34% 29.98 in 10.0 mi NNW 16.1 mph 24.2 mph N/A   Clear
12:53 PM 84.9 °F 51.1 °F 31% 29.96 in 10.0 mi NNW 18.4 mph 26.5 mph N/A   Clear
1:53 PM 88.0 °F 50.0 °F 27% 29.95 in 10.0 mi NNW 16.1 mph - N/A   Clear
2:53 PM 88.0 °F 50.0 °F 27% 29.94 in 10.0 mi NNW 19.6 mph 26.5 mph N/A   Clear
3:53 PM 89.1 °F 50.0 °F 26% 29.93 in 10.0 mi NNW 17.3 mph 26.5 mph N/A   Clear
4:53 PM 88.0 °F 48.9 °F 26% 29.92 in 10.0 mi NNW 18.4 mph 25.3 mph N/A   Clear
5:53 PM 86.0 °F 48.9 °F 28% 29.93 in 10.0 mi NNW 15.0 mph 26.5 mph N/A   Clear
6:53 PM 82.0 °F 46.9 °F 29% 29.94 in 10.0 mi NNW 12.7 mph - N/A   Clear
7:53 PM 79.0 °F 46.9 °F 32% 29.95 in 10.0 mi NNW 12.7 mph - N/A   Clear
8:53 PM 78.1 °F 46.0 °F 32% 29.95 in 10.0 mi NNW 13.8 mph 21.9 mph N/A   Clear
9:53 PM 77.0 °F 46.0 °F 33% 29.96 in 10.0 mi NNW 15.0 mph 23.0 mph N/A   Clear
10:53 PM 73.9 °F 46.0 °F 37% 29.97 in 10.0 mi NNW 11.5 mph - N/A   Clear
11:53 PM 72.0 °F 48.0 °F 43% 29.98 in 10.0 mi NNW 11.5 mph - N/A   Clear